M I D A S
Marine Information and Data Acquisition System
Tripno 1285 of the Zeeleeuw from 2007-06-12 09:54:01 to 2007-06-12 15:31:28
Back to CruiseResearch ActivitiesStationsMapUnderway DataData graphs

EquipmentUnitsComment
TimeDGPSUTC
LatitudeDGPSDM.mWGS84
LongitudeDGPSDM.mWGS84
TemperatureSBE03/SBE38deg celciusITS90
ConductivitySBE21S/mITS90
SalinitySBE21 Practical Salinity Units
ChlorophylAChelsea fluorimeterg/lCalibrated in Aceton
Missing or incorrect values are displayed as -999
Sea surface data collected by the RV Zeeleeuw from 2007-06-12 07:08:21 to 2007-06-12 15:41:42
Time Latitude Longitude Temperature Conductivity Salinity ChlorophylA
2007-06-12 07:09:26 51°13.597 2°56.093 -999 -999 -999 -999
2007-06-12 07:10:26 51°13.598 2°56.093 -999 -999 -999 -999
2007-06-12 07:11:26 51°13.598 2°56.094 -999 -999 -999 -999
2007-06-12 07:12:26 51°13.598 2°56.095 -999 -999 -999 -999
2007-06-12 07:13:26 51°13.599 2°56.095 -999 -999 -999 -999
2007-06-12 07:14:26 51°13.599 2°56.094 -999 -999 -999 -999
2007-06-12 07:15:26 51°13.599 2°56.093 -999 -999 -999 -999
2007-06-12 07:16:26 51°13.6 2°56.094 -999 -999 -999 -999
2007-06-12 07:17:26 51°13.6 2°56.094 -999 -999 -999 -999
2007-06-12 07:18:26 51°13.601 2°56.094 -999 -999 -999 -999
2007-06-12 07:19:26 51°13.601 2°56.094 -999 -999 -999 -999
2007-06-12 07:20:26 51°13.6 2°56.094 -999 -999 -999 -999
2007-06-12 07:21:26 51°13.601 2°56.094 -999 -999 -999 -999
2007-06-12 07:22:26 51°13.6 2°56.095 -999 -999 -999 -999
2007-06-12 07:23:26 51°13.599 2°56.095 -999 -999 -999 -999
2007-06-12 07:24:26 51°13.599 2°56.094 -999 -999 -999 -999
2007-06-12 07:25:26 51°13.598 2°56.094 -999 -999 -999 -999
2007-06-12 07:26:26 51°13.598 2°56.095 -999 -999 -999 -999
2007-06-12 07:27:26 51°13.598 2°56.095 -999 -999 -999 -999
2007-06-12 07:28:26 51°13.598 2°56.094 -999 -999 -999 -999
2007-06-12 07:29:26 51°13.597 2°56.093 -999 -999 -999 -999
2007-06-12 07:30:26 51°13.597 2°56.093 -999 -999 -999 -999
2007-06-12 07:31:26 51°13.598 2°56.093 -999 -999 -999 -999
2007-06-12 07:32:26 51°13.598 2°56.093 -999 -999 -999 -999
2007-06-12 07:33:26 51°13.598 2°56.093 -999 -999 -999 -999
2007-06-12 07:34:26 51°13.598 2°56.093 -999 -999 -999 -999
2007-06-12 07:35:26 51°13.599 2°56.092 -999 -999 -999 -999
2007-06-12 07:36:26 51°13.599 2°56.091 -999 -999 -999 -999
2007-06-12 07:37:26 51°13.599 2°56.091 -999 -999 -999 -999
2007-06-12 07:38:26 51°13.599 2°56.092 -999 -999 -999 -999
2007-06-12 07:39:26 51°13.597 2°56.092 -999 -999 -999 -999
2007-06-12 07:40:26 51°13.597 2°56.093 -999 -999 -999 -999
2007-06-12 07:41:26 51°13.599 2°56.094 -999 -999 -999 -999
2007-06-12 07:42:26 51°13.599 2°56.094 -999 -999 -999 -999
2007-06-12 07:43:26 51°13.598 2°56.094 -999 -999 -999 -999
2007-06-12 07:44:26 51°13.599 2°56.094 -999 -999 -999 -999
2007-06-12 07:45:26 51°13.599 2°56.094 -999 -999 -999 -999
2007-06-12 07:46:26 51°13.599 2°56.094 -999 -999 -999 -999
2007-06-12 07:47:26 51°13.599 2°56.094 -999 -999 -999 -999
2007-06-12 07:48:26 51°13.599 2°56.094 -999 -999 -999 -999
2007-06-12 07:49:26 51°13.599 2°56.094 -999 -999 -999 -999
2007-06-12 07:50:26 51°13.599 2°56.094 -999 -999 -999 -999
2007-06-12 07:51:26 51°13.599 2°56.094 -999 -999 -999 -999
2007-06-12 07:52:26 51°13.599 2°56.094 -999 -999 -999 -999
2007-06-12 07:53:26 51°13.599 2°56.094 -999 -999 -999 -999
2007-06-12 07:54:26 51°13.6 2°56.095 -999 -999 -999 -999
2007-06-12 07:55:26 51°13.6 2°56.095 -999 -999 -999 -999
2007-06-12 07:56:26 51°13.6 2°56.094 -999 -999 -999 -999
2007-06-12 07:57:26 51°13.599 2°56.094 -999 -999 -999 -999
2007-06-12 07:58:26 51°13.599 2°56.094 -999 -999 -999 -999
2007-06-12 07:59:26 51°13.6 2°56.094 -999 -999 -999 -999
2007-06-12 08:00:26 51°13.6 2°56.095 -999 -999 -999 -999
2007-06-12 08:01:26 51°13.599 2°56.095 -999 -999 -999 -999
2007-06-12 08:02:26 51°13.599 2°56.095 -999 -999 -999 -999
2007-06-12 08:03:26 51°13.598 2°56.096 -999 -999 -999 -999
2007-06-12 08:04:26 51°13.598 2°56.096 -999 -999 -999 -999
2007-06-12 08:05:26 51°13.598 2°56.096 -999 -999 -999 -999
2007-06-12 08:06:26 51°13.598 2°56.096 -999 -999 -999 -999
2007-06-12 08:07:26 51°13.599 2°56.096 -999 -999 -999 -999
2007-06-12 08:08:26 51°13.598 2°56.095 -999 -999 -999 -999
2007-06-12 08:09:26 51°13.597 2°56.095 -999 -999 -999 -999
2007-06-12 08:10:26 51°13.598 2°56.095 -999 -999 -999 -999
2007-06-12 08:11:26 51°13.599 2°56.095 -999 -999 -999 -999
2007-06-12 08:12:26 51°13.6 2°56.096 -999 -999 -999 -999
2007-06-12 08:13:26 51°13.599 2°56.094 -999 -999 -999 -999
2007-06-12 08:14:26 51°13.6 2°56.094 -999 -999 -999 -999
2007-06-12 08:15:26 51°13.6 2°56.094 -999 -999 -999 -999
2007-06-12 08:16:26 51°13.599 2°56.094 -999 -999 -999 -999
2007-06-12 08:17:26 51°13.599 2°56.094 -999 -999 -999 -999
2007-06-12 08:18:26 51°13.601 2°56.094 -999 -999 -999 -999
2007-06-12 08:19:26 51°13.602 2°56.094 -999 -999 -999 -999
2007-06-12 08:20:26 51°13.601 2°56.094 -999 -999 -999 -999
2007-06-12 08:21:26 51°13.601 2°56.094 -999 -999 -999 -999
2007-06-12 08:22:26 51°13.599 2°56.094 -999 -999 -999 -999
2007-06-12 08:23:26 51°13.598 2°56.095 -999 -999 -999 -999
2007-06-12 08:24:26 51°13.597 2°56.095 -999 -999 -999 -999
2007-06-12 08:25:26 51°13.597 2°56.094 -999 -999 -999 -999
2007-06-12 08:26:26 51°13.598 2°56.094 -999 -999 -999 -999
2007-06-12 08:27:26 51°13.598 2°56.094 -999 -999 -999 -999
2007-06-12 08:28:26 51°13.598 2°56.094 -999 -999 -999 -999
2007-06-12 08:29:26 51°13.597 2°56.094 -999 -999 -999 -999
2007-06-12 08:30:26 51°13.597 2°56.094 -999 -999 -999 -999
2007-06-12 08:31:26 51°13.597 2°56.094 -999 -999 -999 -999
2007-06-12 08:32:26 51°13.598 2°56.093 -999 -999 -999 -999
2007-06-12 08:33:26 51°13.598 2°56.094 -999 -999 -999 -999
2007-06-12 08:34:26 51°13.597 2°56.094 -999 -999 -999 -999
2007-06-12 08:35:26 51°13.597 2°56.094 -999 -999 -999 -999
2007-06-12 08:36:26 51°13.597 2°56.093 -999 -999 -999 -999
2007-06-12 08:37:26 51°13.598 2°56.094 -999 -999 -999 -999
2007-06-12 08:38:26 51°13.599 2°56.093 -999 -999 -999 -999
2007-06-12 08:39:26 51°13.599 2°56.093 -999 -999 -999 -999
2007-06-12 08:40:26 51°13.599 2°56.094 -999 -999 -999 -999
2007-06-12 08:41:26 51°13.599 2°56.094 -999 -999 -999 -999
2007-06-12 08:42:26 51°13.6 2°56.094 -999 -999 -999 -999
2007-06-12 08:43:26 51°13.6 2°56.094 -999 -999 -999 -999
2007-06-12 08:44:26 51°13.6 2°56.094 -999 -999 -999 -999
2007-06-12 08:45:26 51°13.6 2°56.094 -999 -999 -999 -999
2007-06-12 08:46:26 51°13.6 2°56.094 -999 -999 -999 -999
2007-06-12 08:47:26 51°13.599 2°56.093 -999 -999 -999 -999
2007-06-12 08:48:26 51°13.599 2°56.094 -999 -999 -999 -999
2007-06-12 08:49:26 51°13.599 2°56.094 -999 -999 -999 -999
2007-06-12 08:50:26 51°13.599 2°56.094 -999 -999 -999 -999
2007-06-12 08:51:26 51°13.599 2°56.094 -999 -999 -999 -999
2007-06-12 08:52:26 51°13.6 2°56.094 -999 -999 -999 -999
2007-06-12 08:53:26 51°13.599 2°56.094 -999 -999 -999 -999
2007-06-12 08:54:26 51°13.599 2°56.095 -999 -999 -999 -999
2007-06-12 08:55:26 51°13.598 2°56.095 -999 -999 -999 -999
2007-06-12 08:56:26 51°13.598 2°56.095 -999 -999 -999 -999
2007-06-12 08:57:26 51°13.598 2°56.095 -999 -999 -999 -999
2007-06-12 08:58:26 51°13.598 2°56.095 -999 -999 -999 -999
2007-06-12 08:59:26 51°13.598 2°56.096 -999 -999 -999 -999
2007-06-12 09:00:26 51°13.598 2°56.096 -999 -999 -999 -999
2007-06-12 09:01:26 51°13.598 2°56.096 -999 -999 -999 -999
2007-06-12 09:02:26 51°13.597 2°56.097 -999 -999 -999 -999
2007-06-12 09:03:26 51°13.597 2°56.096 -999 -999 -999 -999
2007-06-12 09:04:26 51°13.598 2°56.096 -999 -999 -999 -999
2007-06-12 09:05:26 51°13.598 2°56.096 -999 -999 -999 -999
2007-06-12 09:06:26 51°13.598 2°56.096 -999 -999 -999 -999
2007-06-12 09:07:26 51°13.598 2°56.096 -999 -999 -999 -999
2007-06-12 09:08:26 51°13.599 2°56.096 -999 -999 -999 -999
2007-06-12 09:09:26 51°13.599 2°56.097 -999 -999 -999 -999
2007-06-12 09:10:26 51°13.599 2°56.096 -999 -999 -999 -999
2007-06-12 09:11:26 51°13.599 2°56.097 -999 -999 -999 -999
2007-06-12 09:12:26 51°13.599 2°56.097 -999 -999 -999 -999
2007-06-12 09:13:26 51°13.599 2°56.097 -999 -999 -999 -999
2007-06-12 09:14:26 51°13.599 2°56.096 -999 -999 -999 -999
2007-06-12 09:15:26 51°13.598 2°56.095 -999 -999 -999 -999
2007-06-12 09:16:26 51°13.598 2°56.094 -999 -999 -999 -999
2007-06-12 09:17:26 51°13.598 2°56.093 -999 -999 -999 -999
2007-06-12 09:18:26 51°13.598 2°56.093 -999 -999 -999 -999
2007-06-12 09:19:26 51°13.598 2°56.093 -999 -999 -999 -999
2007-06-12 09:20:26 51°13.598 2°56.093 -999 -999 -999 -999
2007-06-12 09:21:26 51°13.598 2°56.094 -999 -999 -999 -999
2007-06-12 09:22:26 51°13.598 2°56.093 -999 -999 -999 -999
2007-06-12 09:23:26 51°13.599 2°56.094 -999 -999 -999 -999
2007-06-12 09:24:26 51°13.599 2°56.094 -999 -999 -999 -999
2007-06-12 09:25:26 51°13.598 2°56.094 -999 -999 -999 -999
2007-06-12 09:26:26 51°13.599 2°56.095 -999 -999 -999 -999
2007-06-12 09:27:26 51°13.599 2°56.095 -999 -999 -999 -999
2007-06-12 09:28:26 51°13.6 2°56.096 -999 -999 -999 -999
2007-06-12 09:29:26 51°13.599 2°56.095 -999 -999 -999 -999
2007-06-12 09:30:26 51°13.599 2°56.095 -999 -999 -999 -999
2007-06-12 09:31:26 51°13.599 2°56.095 -999 -999 -999 -999
2007-06-12 09:32:26 51°13.6 2°56.095 -999 -999 -999 -999
2007-06-12 09:33:26 51°13.6 2°56.096 -999 -999 -999 -999
2007-06-12 09:34:26 51°13.599 2°56.095 -999 -999 -999 -999
2007-06-12 09:35:26 51°13.599 2°56.095 -999 -999 -999 -999
2007-06-12 09:36:26 51°13.599 2°56.095 -999 -999 -999 -999
2007-06-12 09:37:26 51°13.599 2°56.094 -999 -999 -999 -999
2007-06-12 09:38:26 51°13.599 2°56.093 -999 -999 -999 -999
2007-06-12 09:39:26 51°13.599 2°56.093 -999 -999 -999 -999
2007-06-12 09:40:26 51°13.599 2°56.093 -999 -999 -999 -999
2007-06-12 09:41:26 51°13.599 2°56.094 -999 -999 -999 -999
2007-06-12 09:42:26 51°13.599 2°56.094 -999 -999 -999 -999
2007-06-12 09:43:26 51°13.599 2°56.094 -999 -999 -999 -999
2007-06-12 09:44:26 51°13.599 2°56.094 -999 -999 -999 -999
2007-06-12 09:45:26 51°13.599 2°56.093 -999 -999 -999 -999
2007-06-12 09:46:26 51°13.598 2°56.093 -999 -999 -999 -999
2007-06-12 09:47:26 51°13.597 2°56.094 -999 -999 -999 -999
2007-06-12 09:48:26 51°13.598 2°56.094 -999 -999 -999 -999
2007-06-12 09:49:26 51°13.598 2°56.095 -999 -999 -999 -999
2007-06-12 09:50:26 51°13.598 2°56.094 -999 -999 -999 -999
2007-06-12 09:51:26 51°13.597 2°56.093 -999 -999 -999 -999
2007-06-12 09:52:26 51°13.596 2°56.093 -999 -999 -999 -999
2007-06-12 09:53:26 51°13.596 2°56.092 -999 -999 -999 -999
2007-06-12 09:54:26 51°13.597 2°56.094 -999 -999 -999 -999
2007-06-12 09:55:26 51°13.597 2°56.094 -999 -999 -999 -999
2007-06-12 09:56:26 51°13.616 2°56.033 -999 -999 -999 -999
2007-06-12 09:57:26 51°13.659 2°55.91 -999 -999 -999 -999
2007-06-12 09:58:26 51°13.684 2°55.798 -999 -999 -999 -999
2007-06-12 09:59:26 51°13.687 2°55.734 -999 -999 -999 -999
2007-06-12 10:00:26 51°13.712 2°55.737 -999 -999 -999 -999
2007-06-12 10:01:26 51°13.791 2°55.673 -999 -999 -999 -999
2007-06-12 10:02:27 51°13.916 2°55.578 -999 -999 -999 -999
2007-06-12 10:03:26 51°14.038 2°55.491 -999 -999 -999 -999
2007-06-12 10:04:27 51°14.152 2°55.407 -999 -999 -999 -999
2007-06-12 10:05:26 51°14.289 2°55.229 -999 -999 -999 -999
2007-06-12 10:06:27 51°14.459 2°55.018 -999 -999 -999 -999
2007-06-12 10:07:26 51°14.641 2°54.849 -999 -999 -999 -999
2007-06-12 10:08:27 51°14.821 2°54.659 -999 -999 -999 -999
2007-06-12 10:09:26 51°14.918 2°54.391 -999 -999 -999 -999
2007-06-12 10:10:27 51°14.972 2°54.082 -999 -999 -999 -999
2007-06-12 10:11:27 51°15.005 2°53.77 -999 -999 -999 -999
2007-06-12 10:12:26 51°15.063 2°53.469 -999 -999 -999 -999
2007-06-12 10:13:27 51°15.129 2°53.161 -999 -999 -999 -999
2007-06-12 10:14:26 51°15.206 2°52.869 -999 -999 -999 -999
2007-06-12 10:15:26 51°15.268 2°52.567 -999 -999 -999 -999
2007-06-12 10:16:26 51°15.314 2°52.262 -999 -999 -999 -999
2007-06-12 10:17:26 51°15.357 2°51.956 -999 -999 -999 -999
2007-06-12 10:18:26 51°15.39 2°51.648 -999 -999 -999 -999
2007-06-12 10:19:26 51°15.424 2°51.34 -999 -999 -999 -999
2007-06-12 10:20:27 51°15.455 2°51.025 -999 -999 -999 -999
2007-06-12 10:21:26 51°15.482 2°50.718 -999 -999 -999 -999
2007-06-12 10:22:27 51°15.496 2°50.403 -999 -999 -999 -999
2007-06-12 10:23:26 51°15.505 2°50.099 -999 -999 -999 -999
2007-06-12 10:24:27 51°15.53 2°49.779 -999 -999 -999 -999
2007-06-12 10:25:26 51°15.556 2°49.473 -999 -999 -999 -999
2007-06-12 10:26:27 51°15.581 2°49.155 -999 -999 -999 -999
2007-06-12 10:27:26 51°15.621 2°48.848 -999 -999 -999 -999
2007-06-12 10:28:27 51°15.694 2°48.539 -999 -999 -999 -999
2007-06-12 10:29:27 51°15.766 2°48.237 -999 -999 -999 -999
2007-06-12 10:30:26 51°15.838 2°47.943 -999 -999 -999 -999
2007-06-12 10:31:27 51°15.912 2°47.641 -999 -999 -999 -999
2007-06-12 10:32:26 51°15.984 2°47.349 -999 -999 -999 -999
2007-06-12 10:33:26 51°16.058 2°47.053 -999 -999 -999 -999
2007-06-12 10:34:27 51°16.131 2°46.752 -999 -999 -999 -999
2007-06-12 10:35:26 51°16.203 2°46.458 -999 -999 -999 -999
2007-06-12 10:36:27 51°16.277 2°46.151 -999 -999 -999 -999
2007-06-12 10:37:26 51°16.349 2°45.851 -999 -999 -999 -999
2007-06-12 10:38:27 51°16.426 2°45.541 -999 -999 -999 -999
2007-06-12 10:39:26 51°16.499 2°45.241 -999 -999 -999 -999
2007-06-12 10:40:27 51°16.574 2°44.929 -999 -999 -999 -999
2007-06-12 10:41:26 51°16.647 2°44.628 -999 -999 -999 -999
2007-06-12 10:42:27 51°16.723 2°44.317 -999 -999 -999 -999
2007-06-12 10:43:27 51°16.798 2°44.011 -999 -999 -999 -999
2007-06-12 10:44:27 51°16.874 2°43.708 -999 -999 -999 -999
2007-06-12 10:45:27 51°16.95 2°43.405 -999 -999 -999 -999
2007-06-12 10:46:26 51°17.024 2°43.11 -999 -999 -999 -999
2007-06-12 10:47:27 51°17.099 2°42.806 -999 -999 -999 -999
2007-06-12 10:48:26 51°17.175 2°42.518 -999 -999 -999 -999
2007-06-12 10:49:27 51°17.255 2°42.216 -999 -999 -999 -999
2007-06-12 10:50:26 51°17.335 2°41.921 -999 -999 -999 -999
2007-06-12 10:51:26 51°17.414 2°41.62 -999 -999 -999 -999
2007-06-12 10:52:27 51°17.525 2°41.335 -999 -999 -999 -999
2007-06-12 10:53:26 51°17.635 2°41.061 -999 -999 -999 -999
2007-06-12 10:54:27 51°17.748 2°40.781 -999 -999 -999 -999
2007-06-12 10:55:26 51°17.857 2°40.512 -999 -999 -999 -999
2007-06-12 10:56:27 51°17.979 2°40.244 -999 -999 -999 -999
2007-06-12 10:57:27 51°18.104 2°39.986 -999 -999 -999 -999
2007-06-12 10:58:27 51°18.233 2°39.733 -999 -999 -999 -999
2007-06-12 10:59:26 51°18.362 2°39.483 -999 -999 -999 -999
2007-06-12 11:00:27 51°18.485 2°39.21 -999 -999 -999 -999
2007-06-12 11:01:27 51°18.611 2°38.94 -999 -999 -999 -999
2007-06-12 11:02:27 51°18.737 2°38.671 -999 -999 -999 -999
2007-06-12 11:03:27 51°18.863 2°38.407 -999 -999 -999 -999
2007-06-12 11:04:27 51°19.01 2°38.157 -999 -999 -999 -999
2007-06-12 11:05:27 51°19.157 2°37.91 -999 -999 -999 -999
2007-06-12 11:06:26 51°19.309 2°37.68 -999 -999 -999 -999
2007-06-12 11:07:27 51°19.472 2°37.452 -999 -999 -999 -999
2007-06-12 11:08:27 51°19.63 2°37.226 -999 -999 -999 -999
2007-06-12 11:09:26 51°19.791 2°37.011 -999 -999 -999 -999
2007-06-12 11:10:27 51°19.963 2°36.796 -999 -999 -999 -999
2007-06-12 11:11:26 51°20.139 2°36.603 -999 -999 -999 -999
2007-06-12 11:12:27 51°20.322 2°36.406 -999 -999 -999 -999
2007-06-12 11:13:27 51°20.501 2°36.211 -999 -999 -999 -999
2007-06-12 11:14:27 51°20.68 2°36.017 -999 -999 -999 -999
2007-06-12 11:15:27 51°20.859 2°35.824 -999 -999 -999 -999
2007-06-12 11:16:27 51°21.058 2°35.681 -999 -999 -999 -999
2007-06-12 11:17:27 51°21.276 2°35.574 -999 -999 -999 -999
2007-06-12 11:18:27 51°21.498 2°35.469 -999 -999 -999 -999
2007-06-12 11:19:27 51°21.714 2°35.35 -999 -999 -999 -999
2007-06-12 11:20:27 51°21.929 2°35.228 -999 -999 -999 -999
2007-06-12 11:21:27 51°22.143 2°35.109 -999 -999 -999 -999
2007-06-12 11:22:27 51°22.354 2°34.98 -999 -999 -999 -999
2007-06-12 11:23:27 51°22.56 2°34.842 -999 -999 -999 -999
2007-06-12 11:24:27 51°22.748 2°34.658 -999 -999 -999 -999
2007-06-12 11:25:27 51°22.92 2°34.445 -999 -999 -999 -999
2007-06-12 11:26:27 51°23.097 2°34.234 -999 -999 -999 -999
2007-06-12 11:27:26 51°23.273 2°34.031 -999 -999 -999 -999
2007-06-12 11:28:27 51°23.452 2°33.828 -999 -999 -999 -999
2007-06-12 11:29:26 51°23.624 2°33.635 -999 -999 -999 -999
2007-06-12 11:30:27 51°23.8 2°33.433 -999 -999 -999 -999
2007-06-12 11:31:27 51°23.976 2°33.238 -999 -999 -999 -999
2007-06-12 11:32:27 51°24.15 2°33.04 -999 -999 -999 -999
2007-06-12 11:33:27 51°24.323 2°32.84 -999 -999 -999 -999
2007-06-12 11:34:27 51°24.497 2°32.644 -999 -999 -999 -999
2007-06-12 11:35:27 51°24.67 2°32.448 -999 -999 -999 -999
2007-06-12 11:36:27 51°24.84 2°32.237 -999 -999 -999 -999
2007-06-12 11:37:27 51°25.009 2°32.028 -999 -999 -999 -999
2007-06-12 11:38:26 51°25.019 2°31.902 -999 -999 -999 -999
2007-06-12 11:39:26 51°24.871 2°31.898 -999 -999 -999 -999
2007-06-12 11:40:26 51°24.745 2°31.716 -999 -999 -999 -999
2007-06-12 11:41:26 51°24.628 2°31.509 -999 -999 -999 -999
2007-06-12 11:42:26 51°24.513 2°31.292 -999 -999 -999 -999
2007-06-12 11:43:26 51°24.396 2°31.078 -999 -999 -999 -999
2007-06-12 11:44:26 51°24.275 2°30.861 -999 -999 -999 -999
2007-06-12 11:45:26 51°24.149 2°30.642 -999 -999 -999 -999
2007-06-12 11:46:26 51°24.021 2°30.42 -999 -999 -999 -999
2007-06-12 11:47:26 51°23.894 2°30.194 -999 -999 -999 -999
2007-06-12 11:48:26 51°23.817 2°30.062 -999 -999 -999 -999
2007-06-12 11:49:26 51°23.788 2°29.975 -999 -999 -999 -999
2007-06-12 11:50:26 51°23.767 2°29.89 -999 -999 -999 -999
2007-06-12 11:51:26 51°23.763 2°29.83 -999 -999 -999 -999
2007-06-12 11:52:26 51°23.758 2°29.796 -999 -999 -999 -999
2007-06-12 11:53:26 51°23.748 2°29.775 -999 -999 -999 -999
2007-06-12 11:54:26 51°23.733 2°29.768 -999 -999 -999 -999
2007-06-12 11:55:26 51°23.734 2°29.789 -999 -999 -999 -999
2007-06-12 11:56:26 51°23.734 2°29.815 -999 -999 -999 -999
2007-06-12 11:57:26 51°23.741 2°29.847 -999 -999 -999 -999
2007-06-12 11:58:26 51°23.757 2°29.885 -999 -999 -999 -999
2007-06-12 11:59:26 51°23.779 2°29.928 -999 -999 -999 -999
2007-06-12 12:00:26 51°23.773 2°29.965 -999 -999 -999 -999
2007-06-12 12:01:26 51°23.757 2°29.912 -999 -999 -999 -999
2007-06-12 12:02:26 51°23.75 2°29.833 -999 -999 -999 -999
2007-06-12 12:03:26 51°23.745 2°29.798 -999 -999 -999 -999
2007-06-12 12:04:26 51°23.739 2°29.775 -999 -999 -999 -999
2007-06-12 12:05:26 51°23.732 2°29.78 -999 -999 -999 -999
2007-06-12 12:06:26 51°23.734 2°29.808 -999 -999 -999 -999
2007-06-12 12:07:26 51°23.745 2°29.845 -999 -999 -999 -999
2007-06-12 12:08:26 51°23.762 2°29.887 -999 -999 -999 -999
2007-06-12 12:09:26 51°23.782 2°29.93 -999 -999 -999 -999
2007-06-12 12:10:26 51°23.767 2°29.973 -999 -999 -999 -999
2007-06-12 12:11:26 51°23.746 2°29.922 -999 -999 -999 -999
2007-06-12 12:12:26 51°23.747 2°29.832 -999 -999 -999 -999
2007-06-12 12:13:26 51°23.746 2°29.771 -999 -999 -999 -999
2007-06-12 12:14:26 51°23.739 2°29.756 -999 -999 -999 -999
2007-06-12 12:15:26 51°23.732 2°29.768 -999 -999 -999 -999
2007-06-12 12:16:26 51°23.732 2°29.794 -999 -999 -999 -999
2007-06-12 12:17:26 51°23.743 2°29.827 -999 -999 -999 -999
2007-06-12 12:18:26 51°23.761 2°29.864 -999 -999 -999 -999
2007-06-12 12:19:26 51°23.784 2°29.901 -999 -999 -999 -999
2007-06-12 12:20:26 51°23.805 2°29.939 -999 -999 -999 -999
2007-06-12 12:21:26 51°23.786 2°29.983 -999 -999 -999 -999
2007-06-12 12:22:26 51°23.759 2°29.881 -999 -999 -999 -999
2007-06-12 12:23:26 51°23.9 2°29.734 -999 -999 -999 -999
2007-06-12 12:24:26 51°24.113 2°29.873 -999 -999 -999 -999
2007-06-12 12:25:26 51°24.326 2°30.046 -999 -999 -999 -999
2007-06-12 12:26:26 51°24.54 2°30.214 -999 -999 -999 -999
2007-06-12 12:27:26 51°24.752 2°30.39 -999 -999 -999 -999
2007-06-12 12:28:26 51°24.964 2°30.566 -999 -999 -999 -999
2007-06-12 12:29:26 51°25.174 2°30.737 -999 -999 -999 -999
2007-06-12 12:30:26 51°25.313 2°30.821 -999 -999 -999 -999
2007-06-12 12:31:26 51°25.391 2°30.784 -999 -999 -999 -999
2007-06-12 12:32:26 51°25.403 2°30.704 -999 -999 -999 -999
2007-06-12 12:33:26 51°25.385 2°30.651 -999 -999 -999 -999
2007-06-12 12:34:26 51°25.363 2°30.572 -999 -999 -999 -999
2007-06-12 12:35:26 51°25.343 2°30.495 -999 -999 -999 -999
2007-06-12 12:36:26 51°25.328 2°30.437 -999 -999 -999 -999
2007-06-12 12:37:26 51°25.355 2°30.395 -999 -999 -999 -999
2007-06-12 12:38:26 51°25.382 2°30.38 -999 -999 -999 -999
2007-06-12 12:39:26 51°25.407 2°30.386 -999 -999 -999 -999
2007-06-12 12:40:26 51°25.432 2°30.413 -999 -999 -999 -999
2007-06-12 12:41:26 51°25.452 2°30.447 -999 -999 -999 -999
2007-06-12 12:42:26 51°25.469 2°30.481 -999 -999 -999 -999
2007-06-12 12:43:26 51°25.485 2°30.515 -999 -999 -999 -999
2007-06-12 12:44:26 51°25.529 2°30.504 -999 -999 -999 -999
2007-06-12 12:45:26 51°25.52 2°30.426 -999 -999 -999 -999
2007-06-12 12:46:26 51°25.461 2°30.417 -999 -999 -999 -999
2007-06-12 12:47:26 51°25.397 2°30.445 -999 -999 -999 -999
2007-06-12 12:48:26 51°25.39 2°30.475 -999 -999 -999 -999
2007-06-12 12:49:26 51°25.416 2°30.507 -999 -999 -999 -999
2007-06-12 12:50:26 51°25.391 2°30.559 -999 -999 -999 -999
2007-06-12 12:51:26 51°25.365 2°30.624 -999 -999 -999 -999
2007-06-12 12:52:26 51°25.356 2°30.671 -999 -999 -999 -999
2007-06-12 12:53:26 51°25.354 2°30.71 -999 -999 -999 -999
2007-06-12 12:54:26 51°25.354 2°30.743 -999 -999 -999 -999
2007-06-12 12:55:26 51°25.336 2°30.759 -999 -999 -999 -999
2007-06-12 12:56:26 51°25.328 2°30.747 -999 -999 -999 -999
2007-06-12 12:57:26 51°25.335 2°30.686 -999 -999 -999 -999
2007-06-12 12:58:26 51°25.367 2°30.637 -999 -999 -999 -999
2007-06-12 12:59:26 51°25.398 2°30.617 -999 -999 -999 -999
2007-06-12 13:00:26 51°25.425 2°30.613 -999 -999 -999 -999
2007-06-12 13:01:26 51°25.45 2°30.622 -999 -999 -999 -999
2007-06-12 13:02:26 51°25.473 2°30.641 -999 -999 -999 -999
2007-06-12 13:03:26 51°25.496 2°30.666 -999 -999 -999 -999
2007-06-12 13:04:26 51°25.515 2°30.697 -999 -999 -999 -999
2007-06-12 13:05:26 51°25.543 2°30.713 -999 -999 -999 -999
2007-06-12 13:06:26 51°25.574 2°30.684 -999 -999 -999 -999
2007-06-12 13:07:26 51°25.577 2°30.639 -999 -999 -999 -999
2007-06-12 13:08:26 51°25.554 2°30.623 -999 -999 -999 -999
2007-06-12 13:09:26 51°25.537 2°30.625 -999 -999 -999 -999
2007-06-12 13:10:26 51°25.527 2°30.627 -999 -999 -999 -999
2007-06-12 13:11:26 51°25.523 2°30.636 -999 -999 -999 -999
2007-06-12 13:12:26 51°25.523 2°30.649 -999 -999 -999 -999
2007-06-12 13:13:26 51°25.525 2°30.662 -999 -999 -999 -999
2007-06-12 13:14:26 51°25.527 2°30.676 -999 -999 -999 -999
2007-06-12 13:15:26 51°25.53 2°30.688 -999 -999 -999 -999
2007-06-12 13:16:26 51°25.535 2°30.701 -999 -999 -999 -999
2007-06-12 13:17:26 51°25.54 2°30.714 -999 -999 -999 -999
2007-06-12 13:18:26 51°25.546 2°30.726 -999 -999 -999 -999
2007-06-12 13:19:26 51°25.553 2°30.735 -999 -999 -999 -999
2007-06-12 13:20:26 51°25.561 2°30.743 -999 -999 -999 -999
2007-06-12 13:21:26 51°25.574 2°30.754 -999 -999 -999 -999
2007-06-12 13:22:26 51°25.591 2°30.766 -999 -999 -999 -999
2007-06-12 13:23:26 51°25.612 2°30.773 -999 -999 -999 -999
2007-06-12 13:24:26 51°25.634 2°30.756 -999 -999 -999 -999
2007-06-12 13:25:26 51°25.646 2°30.725 -999 -999 -999 -999
2007-06-12 13:26:26 51°25.648 2°30.694 -999 -999 -999 -999
2007-06-12 13:27:26 51°25.64 2°30.686 -999 -999 -999 -999
2007-06-12 13:28:26 51°25.629 2°30.699 -999 -999 -999 -999
2007-06-12 13:29:26 51°25.616 2°30.722 -999 -999 -999 -999
2007-06-12 13:30:26 51°25.604 2°30.745 -999 -999 -999 -999
2007-06-12 13:31:26 51°25.592 2°30.76 -999 -999 -999 -999
2007-06-12 13:32:26 51°25.583 2°30.774 -999 -999 -999 -999
2007-06-12 13:33:26 51°25.575 2°30.79 -999 -999 -999 -999
2007-06-12 13:34:26 51°25.567 2°30.806 -999 -999 -999 -999
2007-06-12 13:35:26 51°25.56 2°30.818 -999 -999 -999 -999
2007-06-12 13:36:26 51°25.554 2°30.828 -999 -999 -999 -999
2007-06-12 13:37:26 51°25.549 2°30.837 -999 -999 -999 -999
2007-06-12 13:38:26 51°25.544 2°30.849 -999 -999 -999 -999
2007-06-12 13:39:26 51°25.538 2°30.865 -999 -999 -999 -999
2007-06-12 13:40:26 51°25.535 2°30.88 -999 -999 -999 -999
2007-06-12 13:41:26 51°25.532 2°30.897 -999 -999 -999 -999
2007-06-12 13:42:26 51°25.53 2°30.904 -999 -999 -999 -999
2007-06-12 13:43:26 51°25.531 2°30.899 -999 -999 -999 -999
2007-06-12 13:44:26 51°25.546 2°30.881 -999 -999 -999 -999
2007-06-12 13:45:26 51°25.572 2°30.877 -999 -999 -999 -999
2007-06-12 13:46:26 51°25.603 2°30.855 -999 -999 -999 -999
2007-06-12 13:47:26 51°25.632 2°30.821 -999 -999 -999 -999
2007-06-12 13:48:26 51°25.656 2°30.805 -999 -999 -999 -999
2007-06-12 13:49:26 51°25.679 2°30.805 -999 -999 -999 -999
2007-06-12 13:50:26 51°25.7 2°30.812 -999 -999 -999 -999
2007-06-12 13:51:26 51°25.721 2°30.823 -999 -999 -999 -999
2007-06-12 13:52:26 51°25.74 2°30.838 -999 -999 -999 -999
2007-06-12 13:53:26 51°25.757 2°30.855 -999 -999 -999 -999
2007-06-12 13:54:27 51°25.778 2°30.866 -999 -999 -999 -999
2007-06-12 13:55:27 51°25.792 2°30.784 -999 -999 -999 -999
2007-06-12 13:56:27 51°25.722 2°30.803 -999 -999 -999 -999
2007-06-12 13:57:27 51°25.587 2°30.961 -999 -999 -999 -999
2007-06-12 13:58:27 51°25.408 2°31.13 -999 -999 -999 -999
2007-06-12 13:59:27 51°25.249 2°31.343 -999 -999 -999 -999
2007-06-12 14:00:27 51°25.115 2°31.608 -999 -999 -999 -999
2007-06-12 14:01:27 51°24.978 2°31.872 -999 -999 -999 -999
2007-06-12 14:02:27 51°24.84 2°32.135 -999 -999 -999 -999
2007-06-12 14:03:27 51°24.703 2°32.398 -999 -999 -999 -999
2007-06-12 14:04:27 51°24.567 2°32.66 -999 -999 -999 -999
2007-06-12 14:05:27 51°24.429 2°32.917 -999 -999 -999 -999
2007-06-12 14:06:27 51°24.288 2°33.176 -999 -999 -999 -999
2007-06-12 14:07:27 51°24.153 2°33.444 -999 -999 -999 -999
2007-06-12 14:08:27 51°24.022 2°33.711 -999 -999 -999 -999
2007-06-12 14:09:27 51°23.89 2°33.972 -999 -999 -999 -999
2007-06-12 14:10:27 51°23.755 2°34.232 -999 -999 -999 -999
2007-06-12 14:11:27 51°23.622 2°34.492 -999 -999 -999 -999
2007-06-12 14:12:27 51°23.484 2°34.752 -999 -999 -999 -999
2007-06-12 14:13:27 51°23.308 2°34.935 -999 -999 -999 -999
2007-06-12 14:14:27 51°23.113 2°35.07 -999 -999 -999 -999
2007-06-12 14:15:27 51°22.92 2°35.208 -999 -999 -999 -999
2007-06-12 14:16:27 51°22.726 2°35.346 -999 -999 -999 -999
2007-06-12 14:17:27 51°22.536 2°35.487 -999 -999 -999 -999
2007-06-12 14:18:27 51°22.341 2°35.619 -999 -999 -999 -999
2007-06-12 14:19:27 51°22.145 2°35.744 -999 -999 -999 -999
2007-06-12 14:20:27 51°21.949 2°35.863 -999 -999 -999 -999
2007-06-12 14:21:27 51°21.752 2°35.982 -999 -999 -999 -999
2007-06-12 14:22:27 51°21.552 2°36.098 -999 -999 -999 -999
2007-06-12 14:23:27 51°21.353 2°36.218 -999 -999 -999 -999
2007-06-12 14:24:27 51°21.153 2°36.337 -999 -999 -999 -999
2007-06-12 14:25:27 51°20.952 2°36.458 -999 -999 -999 -999
2007-06-12 14:26:27 51°20.779 2°36.647 -999 -999 -999 -999
2007-06-12 14:27:27 51°20.634 2°36.888 -999 -999 -999 -999
2007-06-12 14:28:27 51°20.494 2°37.141 -999 -999 -999 -999
2007-06-12 14:29:27 51°20.354 2°37.39 -999 -999 -999 -999
2007-06-12 14:30:27 51°20.213 2°37.636 -999 -999 -999 -999
2007-06-12 14:31:27 51°20.071 2°37.881 -999 -999 -999 -999
2007-06-12 14:32:27 51°19.926 2°38.123 -999 -999 -999 -999
2007-06-12 14:33:27 51°19.781 2°38.367 -999 -999 -999 -999
2007-06-12 14:34:27 51°19.634 2°38.609 -999 -999 -999 -999
2007-06-12 14:35:27 51°19.486 2°38.853 -999 -999 -999 -999
2007-06-12 14:36:27 51°19.338 2°39.099 -999 -999 -999 -999
2007-06-12 14:37:27 51°19.189 2°39.349 -999 -999 -999 -999
2007-06-12 14:38:27 51°19.046 2°39.602 -999 -999 -999 -999
2007-06-12 14:39:27 51°18.905 2°39.854 -999 -999 -999 -999
2007-06-12 14:40:27 51°18.765 2°40.106 -999 -999 -999 -999
2007-06-12 14:41:27 51°18.626 2°40.355 -999 -999 -999 -999
2007-06-12 14:42:27 51°18.488 2°40.6 -999 -999 -999 -999
2007-06-12 14:43:27 51°18.348 2°40.849 -999 -999 -999 -999
2007-06-12 14:44:27 51°18.209 2°41.097 -999 -999 -999 -999
2007-06-12 14:45:27 51°18.066 2°41.352 -999 -999 -999 -999
2007-06-12 14:46:27 51°17.944 2°41.626 -999 -999 -999 -999
2007-06-12 14:47:27 51°17.823 2°41.901 -999 -999 -999 -999
2007-06-12 14:48:27 51°17.702 2°42.174 -999 -999 -999 -999
2007-06-12 14:49:27 51°17.578 2°42.449 -999 -999 -999 -999
2007-06-12 14:50:27 51°17.455 2°42.718 -999 -999 -999 -999
2007-06-12 14:51:27 51°17.337 2°42.975 -999 -999 -999 -999
2007-06-12 14:52:27 51°17.218 2°43.238 -999 -999 -999 -999
2007-06-12 14:53:27 51°17.093 2°43.504 -999 -999 -999 -999
2007-06-12 14:54:27 51°16.969 2°43.776 -999 -999 -999 -999
2007-06-12 14:55:27 51°16.845 2°44.048 -999 -999 -999 -999
2007-06-12 14:56:27 51°16.721 2°44.317 -999 -999 -999 -999
2007-06-12 14:57:27 51°16.6 2°44.591 -999 -999 -999 -999
2007-06-12 14:58:27 51°16.474 2°44.862 -999 -999 -999 -999
2007-06-12 14:59:27 51°16.373 2°45.16 -999 -999 -999 -999
2007-06-12 15:00:27 51°16.293 2°45.473 -999 -999 -999 -999
2007-06-12 15:01:27 51°16.223 2°45.789 -999 -999 -999 -999
2007-06-12 15:02:27 51°16.153 2°46.103 -999 -999 -999 -999
2007-06-12 15:03:27 51°16.08 2°46.41 -999 -999 -999 -999
2007-06-12 15:04:27 51°16.009 2°46.718 -999 -999 -999 -999
2007-06-12 15:05:27 51°15.934 2°47.026 -999 -999 -999 -999
2007-06-12 15:06:27 51°15.864 2°47.334 -999 -999 -999 -999
2007-06-12 15:07:27 51°15.793 2°47.643 -999 -999 -999 -999
2007-06-12 15:08:27 51°15.725 2°47.951 -999 -999 -999 -999
2007-06-12 15:09:27 51°15.656 2°48.259 -999 -999 -999 -999
2007-06-12 15:10:27 51°15.588 2°48.567 -999 -999 -999 -999
2007-06-12 15:11:27 51°15.518 2°48.876 -999 -999 -999 -999
2007-06-12 15:12:27 51°15.45 2°49.187 -999 -999 -999 -999
2007-06-12 15:13:27 51°15.38 2°49.492 -999 -999 -999 -999
2007-06-12 15:14:27 51°15.318 2°49.804 -999 -999 -999 -999
2007-06-12 15:15:27 51°15.256 2°50.115 -999 -999 -999 -999
2007-06-12 15:16:27 51°15.193 2°50.43 -999 -999 -999 -999
2007-06-12 15:17:27 51°15.132 2°50.743 -999 -999 -999 -999
2007-06-12 15:18:27 51°15.071 2°51.052 -999 -999 -999 -999
2007-06-12 15:19:27 51°15.011 2°51.362 -999 -999 -999 -999
2007-06-12 15:20:27 51°14.948 2°51.67 -999 -999 -999 -999
2007-06-12 15:21:27 51°14.882 2°51.977 -999 -999 -999 -999
2007-06-12 15:22:27 51°14.826 2°52.285 -999 -999 -999 -999
2007-06-12 15:23:27 51°14.777 2°52.599 -999 -999 -999 -999
2007-06-12 15:24:27 51°14.74 2°52.92 -999 -999 -999 -999
2007-06-12 15:25:27 51°14.712 2°53.242 -999 -999 -999 -999
2007-06-12 15:26:27 51°14.685 2°53.561 -999 -999 -999 -999
2007-06-12 15:27:27 51°14.655 2°53.89 -999 -999 -999 -999
2007-06-12 15:28:27 51°14.611 2°54.211 -999 -999 -999 -999
2007-06-12 15:29:27 51°14.537 2°54.508 -999 -999 -999 -999
2007-06-12 15:30:27 51°14.454 2°54.809 -999 -999 -999 -999
2007-06-12 15:31:27 51°14.352 2°55.099 -999 -999 -999 -999
2007-06-12 15:32:27 51°14.218 2°55.33 -999 -999 -999 -999
2007-06-12 15:33:27 51°14.086 2°55.444 -999 -999 -999 -999
2007-06-12 15:34:27 51°13.971 2°55.528 -999 -999 -999 -999
2007-06-12 15:35:27 51°13.849 2°55.616 -999 -999 -999 -999
2007-06-12 15:36:27 51°13.755 2°55.718 -999 -999 -999 -999
2007-06-12 15:37:27 51°13.684 2°55.847 -999 -999 -999 -999
2007-06-12 15:38:27 51°13.635 2°55.955 -999 -999 -999 -999
2007-06-12 15:39:27 51°13.613 2°56.04 -999 -999 -999 -999
2007-06-12 15:40:27 51°13.601 2°56.086 -999 -999 -999 -999
2007-06-12 15:41:27 51°13.598 2°56.092 -999 -999 -999 -999